Location: Unspecified
(0.0000°N, 0.0000°E)
Time: 18:27:04
(UTC+00:00)

COSMOS 2251 DEB - Pass Details

Date: 15 February 2026
Orbit: 744 x 1394 km, 73.9° (Epoch: 2 March)

Event Time Altitude Azimuth Distance (km) Brightness Sun altitude
Exits shadow 05:05:52 21° 301° (WNW) 2,422 ? -16.6°
Maximum altitude 05:09:44 33° 256° (WSW) 2,013 ? -15.7°
Drops below altitude 10° 05:16:55 10° 196° (SSW) 3,420 ? -13.9°
Sets 05:20:15 0° 186° (S) 4,434 ? -13.1°
